Akron, CO

3:27 PM MST on December 06, 2016 (GMT -0700)
Akron-Washington County

Weather History for KAKO - February, 2014

Change the Weather History Date:

Monday, February 24, 2014

  Actual Average Record
Temperature  
Mean Temperature 37 °F 33 °F  
Max Temperature 59 °F 46 °F 69 °F (1986)
Min Temperature 15 °F 21 °F -17 °F (1960)
Degree Days  
Heating Degree Days 28    
Month to date heating degree days 992  
Cooling Degree Days 0    
Month to date cooling degree days 0  
Moisture  
Dew Point 21 °F    
Average Humidity 60    
Maximum Humidity 100    
Minimum Humidity 19    
Precipitation  
Precipitation 0.00 in 0.02 in 0.19 in (1952)
Month to date precipitation 0.15 0.34  
Year to date precipitation 0.39 0.64  
Sea Level Pressure  
Sea Level Pressure 30.05 in    
Wind  
Wind Speed 14 mph (WSW)    
Max Wind Speed 38 mph    
Max Gust Speed 46 mph    
Visibility 7 miles    
Events Fog    
T = Trace of Precipitation, MM = Missing Value Source: NWS Daily Summary

Daily Weather History Graph

Daily Weather History Graph

Search for Another Location

Airport or City:

Trip Planner

Search our weather history database for the weather conditions in past years. The results will help you decide how hot, cold, wet, or windy it might be!

Date:

Astronomy

Feb. 24, 2014 Rise Set
Actual Time 6:33 AM MST 5:39 PM MST
Civil Twilight 6:06 AM MST 6:06 PM MST
Nautical Twilight 5:34 AM MST 6:38 PM MST
Astronomical Twilight 5:03 AM MST 7:09 PM MST
Moon 2:34 AM MST (2/24) 12:42 PM MST (2/24)
Length of Visible Light 12h 00m
Length of Day
11h 05m
Waning Crescent, 27% of the Moon is Illuminated
Feb 24
Waning Crescent
Mar 1
New
Mar 8
First Quarter
Mar 16
Full
Mar 23
Last Quarter

Hourly Weather History & Observations

Time (MST) Temp. Windchill Dew Point Humidity Pressure Visibility Wind Dir Wind Speed Gust Speed Precip Events Conditions
12:24 AM 24.1 °F 10.6 °F 21.9 °F 91% 29.99 in 9.0 mi SSE 17.3 mph - N/A   Overcast
12:53 AM 25.0 °F 11.3 °F 21.9 °F 88% 30.06 in 9.0 mi South 18.4 mph 27.6 mph N/A   Overcast
1:53 AM 25.0 °F 10.9 °F 21.9 °F 88% 30.02 in 9.0 mi South 19.6 mph 28.8 mph N/A   Mostly Cloudy
2:53 AM 24.1 °F 12.0 °F 21.9 °F 91% 30.00 in 9.0 mi South 13.8 mph - N/A   Overcast
3:34 AM 23.0 °F 12.4 °F 21.0 °F 92% 29.93 in 8.0 mi South 10.4 mph - N/A   Scattered Clouds
3:53 AM 23.0 °F 14.7 °F 21.0 °F 92% 30.01 in 8.0 mi South 6.9 mph - N/A   Clear
4:53 AM 21.9 °F 12.5 °F 19.9 °F 92% 30.02 in 8.0 mi South 8.1 mph - N/A   Clear
5:39 AM 21.9 °F 12.5 °F 19.9 °F 92% 29.92 in 8.0 mi SSW 8.1 mph - N/A   Scattered Clouds
5:48 AM 21.2 °F 12.6 °F 19.4 °F 93% 29.92 in 8.0 mi SSW 6.9 mph - N/A   Mostly Cloudy
5:53 AM 21.9 °F 13.4 °F 21.0 °F 96% 30.04 in 7.0 mi South 6.9 mph - N/A   Mostly Cloudy
6:02 AM 23.0 °F 13.9 °F 21.9 °F 96% 29.92 in 6.0 mi South 8.1 mph - N/A   Overcast
6:53 AM 23.0 °F 13.1 °F 21.9 °F 96% 30.02 in 4.0 mi South 9.2 mph - N/A   Mostly Cloudy
7:10 AM 23.0 °F 13.9 °F 21.9 °F 96% 29.91 in 4.0 mi SSW 8.1 mph - N/A   Partly Cloudy
7:46 AM 24.1 °F 13.1 °F 23.0 °F 96% 29.92 in 2.0 mi SW 11.5 mph - N/A   Mostly Cloudy
7:50 AM 24.8 °F 15.3 °F 23.0 °F 93% 29.91 in 1.2 mi SSW 9.2 mph - N/A   Mostly Cloudy
7:53 AM 24.1 °F 14.4 °F 23.0 °F 96% 30.03 in 0.8 mi SW 9.2 mph - N/A   Mostly Cloudy
8:53 AM 27.0 °F 19.5 °F 26.1 °F 96% 30.03 in 0.5 mi WNW 6.9 mph - N/A Fog Light Freezing Fog
9:03 AM 27.0 °F 18.7 °F 26.1 °F 96% 29.93 in 1.2 mi West 8.1 mph - N/A   Overcast
9:08 AM 27.0 °F 17.3 °F 27.0 °F 100% 29.92 in 0.8 mi West 10.4 mph - N/A   Overcast
9:19 AM 28.0 °F 18.6 °F 27.0 °F 96% 29.92 in 1.2 mi WSW 10.4 mph - N/A   Overcast
9:26 AM 28.0 °F 18.1 °F 27.0 °F 96% 29.91 in 2.0 mi WSW 11.5 mph - N/A   Overcast
9:36 AM 28.9 °F 19.8 °F 28.0 °F 96% 29.91 in 6.0 mi SW 10.4 mph - N/A   Mostly Cloudy
9:53 AM 32.0 °F 25.6 °F 28.0 °F 85% 30.00 in 8.0 mi WSW 6.9 mph - N/A   Partly Cloudy
10:53 AM 43.0 °F 37.2 °F 28.0 °F 56% 29.95 in 10.0 mi WSW 10.4 mph - N/A   Clear
11:53 AM 53.1 °F - 24.1 °F 32% 29.91 in 10.0 mi West 6.9 mph - N/A   Clear
12:53 PM 57.0 °F - 15.1 °F 19% 29.88 in 10.0 mi Calm Calm - N/A   Clear
1:53 PM 59.0 °F - 17.1 °F 20% 29.87 in 10.0 mi North 10.4 mph - N/A   Clear
2:53 PM 30.9 °F 15.3 °F 24.1 °F 76% 30.04 in 10.0 mi North 34.5 mph 40.3 mph N/A   Clear
3:01 PM 30.0 °F 14.5 °F 24.1 °F 79% 29.96 in 10.0 mi North 32.2 mph 40.3 mph N/A   Scattered Clouds
3:10 PM 28.0 °F 11.8 °F 23.0 °F 81% 29.97 in 9.0 mi North 32.2 mph 39.1 mph N/A   Mostly Cloudy
3:53 PM 24.1 °F 5.4 °F 19.0 °F 81% 30.14 in 10.0 mi NNE 36.8 mph 46.0 mph N/A   Overcast
4:28 PM 23.0 °F 5.4 °F 18.0 °F 81% 30.05 in 10.0 mi NNE 29.9 mph 39.1 mph N/A   Overcast
4:53 PM 21.9 °F 3.4 °F 17.1 °F 82% 30.22 in 10.0 mi North 32.2 mph 43.7 mph N/A   Overcast
5:53 PM 21.0 °F 5.0 °F 16.0 °F 81% 30.29 in 10.0 mi NNE 21.9 mph 33.4 mph N/A   Overcast
6:53 PM 21.0 °F 5.4 °F 16.0 °F 81% 30.33 in 10.0 mi North 20.7 mph - N/A   Overcast
7:53 PM 18.0 °F 3.6 °F 14.0 °F 84% 30.38 in 10.0 mi North 15.0 mph - N/A   Overcast
8:53 PM 17.1 °F 3.6 °F 14.0 °F 88% 30.40 in 10.0 mi North 12.7 mph - N/A   Overcast
9:00 PM 17.1 °F 3.6 °F 14.0 °F 88% 30.26 in 10.0 mi North 12.7 mph - N/A   Overcast
9:53 PM 16.0 °F 3.6 °F 12.9 °F 88% 30.39 in 10.0 mi North 10.4 mph - N/A   Overcast
10:53 PM 16.0 °F 7.4 °F 12.9 °F 88% 30.33 in 10.0 mi NNW 5.8 mph - N/A   Overcast
11:53 PM 15.1 °F 9.4 °F 12.0 °F 88% 30.28 in 10.0 mi WNW 3.5 mph - N/A   Overcast